Theta_e
298 298 298 298 298 298 298 299 299 298 296 295 295 296 296 296 297 297 297 297 297 297 295 295 295 295 295 295 291 292 290 289 289 289 291 290 286 288 288 290 289 289 291 290 291 288 291 292 292 292 289 290 290 289
296 296 295 294 295 296 296 297 298 298 299 298 296 296 296 296 296 296 296 296 295 296 294 294 294 294 294 294 294 291 290 290 292 288 285 286 290 281 281 288 286 289 288 289 290 291 287 288 288 288 289 289 288 287
293 293 293 294 296 297 297 298 297 297 297 297 298 298 297 296 296 296 295 295 295 295 293 292 292 292 292 292 293 292 291 292 293 293 287 284 286 285 286 285 287 289 287 286 287 287 284 285 285 286 286 286 285 285
292 293 294 295 297 298 297 297 298 298 298 298 297 297 297 296 295 295 294 294 294 295 292 291 291 292 291 292 291 292 292 292 292 292 288 275 282 287 283 282 283 286 285 287 284 281 283 283 283 283 283 283 283 283
292 293 295 297 297 296 296 296 297 297 297 297 297 297 297 296 295 294 293 293 293 293 292 290 290 290 289 289 290 291 291 291 291 290 282 281 285 282 280 278 281 284 283 285 285 283 283 281 281 282 282 282 282 282
294 296 296 296 295 295 294 295 296 296 296 296 296 296 297 296 295 293 293 291 291 291 291 285 287 287 288 289 289 291 291 291 291 290 287 287 287 285 281 284 280 281 282 282 282 282 283 282 281 280 280 280 280 280
295 295 294 295 295 294 293 293 293 293 293 293 293 294 294 295 293 292 291 290 291 291 290 284 285 286 286 287 287 287 288 289 289 288 287 288 288 286 280 280 277 279 280 281 281 281 280 279 279 279 279 278 277 277
294 294 294 293 292 292 293 293 292 292 292 292 292 292 292 291 291 290 289 290 290 290 290 279 280 285 286 286 286 286 287 287 287 286 286 286 284 283 282 276 277 278 278 278 279 279 279 279 278 277 277 276 275 275
293 294 294 293 290 290 291 293 291 291 291 291 291 291 291 289 289 288 289 288 288 289 289 281 281 279 286 286 286 286 286 278 284 280 282 284 277 279 275 276 276 276 278 277 277 277 277 277 276 276 276 275 275 275
293 294 294 293 291 291 292 292 291 290 290 290 290 290 289 288 287 288 287 287 288 288 290 281 285 282 286 285 284 284 286 277 276 279 284 279 276 273 275 276 276 276 277 276 276 275 275 275 275 274 274 274 273 273
294 294 292 291 291 292 291 290 290 290 289 289 289 289 287 287 287 287 286 282 283 281 287 286 286 282 286 281 280 284 277 278 282 278 281 276 275 271 274 274 275 275 276 276 276 276 275 275 274 273 273 272 271 271
292 292 292 291 290 291 290 290 290 290 289 288 288 287 286 286 286 278 270 276 277 283 286 287 286 287 286 287 284 282 280 278 283 280 278 274 271 274 274 275 275 275 275 274 274 274 273 273 272 271 271 270 270 269
289 289 289 289 290 290 290 289 287 289 288 288 287 286 284 283 280 277 278 280 280 284 286 287 281 286 285 286 280 274 283 279 280 275 278 272 275 276 276 276 274 274 274 274 273 273 272 272 271 270 269 269 268 268
289 289 289 289 288 287 286 285 287 287 286 287 285 278 278 277 274 275 277 280 285 285 286 286 285 285 284 280 272 279 275 277 274 275 274 271 278 278 277 276 274 274 274 273 273 272 272 271 269 269 268 268 268 267
289 289 289 288 288 287 287 286 285 285 286 287 285 279 277 284 285 285 284 284 285 285 285 285 283 282 275 278 273 275 276 277 280 277 275 278 279 278 277 276 275 275 274 273 272 272 271 270 268 268 268 267 267 267
289 289 289 288 288 285 284 284 285 284 286 286 286 284 283 281 284 286 285 285 285 285 284 283 274 272 273 274 276 276 276 276 278 277 278 278 277 276 276 275 275 274 273 272 272 271 270 269 268 267 267 267 266 266
289 289 289 289 287 284 283 285 285 284 284 285 286 285 284 285 284 285 284 284 284 284 278 277 278 277 271 272 275 276 278 279 278 277 277 276 275 274 274 274 273 273 272 272 271 270 269 267 267 267 267 267 266 266
289 289 289 288 284 282 284 285 284 284 284 285 285 284 285 284 284 283 283 282 283 283 282 277 278 275 275 276 279 277 277 277 276 275 274 274 273 272 272 272 272 271 271 270 269 269 268 267 267 267 267 266 266 266
290 289 289 286 283 282 283 284 284 284 284 283 283 283 282 282 281 281 281 280 280 280 281 279 274 276 279 277 277 277 277 276 274 274 273 273 272 271 271 270 270 269 269 269 268 268 267 267 267 267 267 266 266 266
288 288 287 284 282 282 283 283 283 283 283 282 281 281 281 280 280 279 279 278 278 279 277 272 273 275 275 275 275 275 275 274 273 273 273 273 272 271 270 270 270 269 269 269 268 268 267 267 267 267 267 266 266 266
288 287 285 282 281 281 281 282 282 282 282 281 280 280 280 279 277 277 276 275 276 275 275 276 274 274 274 275 275 274 273 272 272 272 272 272 272 271 270 269 269 269 269 269 269 269 268 268 268 267 267 267 266 266
286 284 282 281 281 281 281 281 280 281 280 280 279 279 278 277 274 273 272 274 274 274 274 274 275 275 275 275 274 274 273 272 272 272 271 271 271 270 270 270 270 270 270 270 270 270 270 269 269 268 267 267 267 267
283 281 281 280 280 280 279 279 280 280 276 278 277 274 273 272 271 271 271 273 274 274 274 274 274 273 273 273 272 272 272 272 271 271 271 271 271 270 270 270 270 270 270 270 270 270 269 269 269 269 268 268 268 268
280 280 280 280 280 279 279 279 278 276 274 270 263 268 265 269 270 269 263 273 274 274 274 274 273 273 272 272 272 272 271 271 270 270 270 271 271 271 270 270 270 270 270 270 270 270 269 269 269 269 268 268 268 268
280 278 278 277 276 276 265 267 269 269 267 260 264 262 267 268 260 257 263 273 274 274 274 274 273 272 272 272 271 271 271 271 271 271 271 271 270 270 270 271 271 271 271 270 270 269 269 269 268 268 268 268 267 267
272 276 277 275 275 272 267 270 264 264 260 262 261 268 268 262 263 265 266 274 275 274 274 273 272 272 272 271 271 271 271 271 271 271 270 270 270 269 269 269 270 270 270 269 269 269 268 268 268 268 267 267 267 267
272 271 275 276 276 275 272 268 267 266 262 263 261 264 261 267 264 270 274 275 275 274 273 273 272 272 272 272 272 271 271 271 270 270 270 270 270 269 269 269 269 269 268 268 268 268 268 268 268 267 267 267 268 268
277 276 271 274 274 272 269 263 258 261 261 270 269 267 267 268 270 276 275 274 274 274 273 272 272 272 272 272 272 272 271 271 271 271 270 270 270 270 269 269 269 268 268 268 268 268 268 268 268 268 268 268 269 269
276 275 274 273 271 270 270 269 270 272 272 272 267 265 273 275 275 275 274 273 272 272 272 272 272 272 272 272 272 272 272 271 271 270 270 270 269 269 269 269 269 268 268 268 269 268 268 268 268 269 269 269 269 269
275 274 273 270 267 268 275 274 272 272 272 271 271 271 271 273 273 274 273 274 274 274 273 273 272 272 272 272 272 272 272 271 271 270 269 269 269 269 269 269 269 269 269 269 269 269 269 270 269 269 269 269 269 269
274 272 271 270 271 274 273 272 272 272 270 269 268 267 268 269 273 275 275 275 274 274 274 273 273 273 272 272 271 271 271 271 271 270 269 269 269 268 269 269 269 269 270 270 269 270 269 269 269 269 269 269 269 269
270 270 269 264 272 271 271 271 270 270 269 267 268 267 268 268 270 274 274 274 274 274 274 273 273 273 271 271 271 271 270 270 270 268 268 268 269 269 269 269 270 270 269 269 269 270 270 269 269 269 269 269 269 269
269 267 267 268 269 270 269 270 269 267 266 267 267 266 266 267 269 273 272 273 273 273 273 272 272 272 272 272 271 270 269 268 268 267 267 267 268 269 270 270 269 269 270 270 270 269 269 269 269 269 269 269 268 268
Wind_Speed
13 14 16 17 17 17 17 17 17 16 16 18 17 17 16 16 15 13 11 10 6 1 7 6 5 4 5 5 4 8 4 1 3 2 3 3 3 4 2 5 6 8 8 4 4 2 8 3 4 7 4 11 13 9
16 16 17 18 19 20 19 19 18 18 17 16 16 16 15 15 15 14 10 9 6 2 4 6 7 8 7 7 5 11 1 3 6 4 0 3 2 2 2 3 2 2 6 5 8 6 2 0 5 6 8 11 6 4
17 19 21 22 23 24 24 22 21 20 21 20 20 19 18 17 16 14 12 10 7 2 3 5 3 3 4 5 7 4 4 6 5 4 7 2 2 4 3 5 1 3 4 2 3 2 5 10 9 8 7 7 4 1
18 19 21 22 22 23 22 22 21 21 20 20 20 19 19 18 17 16 12 11 5 0 2 2 4 3 4 5 6 8 4 5 6 5 3 3 3 5 3 2 3 3 4 4 1 2 6 4 7 6 4 2 1 3
19 20 21 21 21 22 24 24 24 24 22 21 21 21 20 19 18 16 11 7 3 1 1 3 3 4 4 4 5 5 6 7 5 3 2 2 3 3 2 2 2 6 5 4 5 7 4 6 11 6 4 3 3 4
20 19 19 21 21 22 26 23 23 23 23 23 23 23 23 21 20 13 3 2 4 4 2 1 2 1 2 5 6 6 7 5 3 3 2 2 3 1 2 3 2 3 2 1 3 9 6 11 7 4 3 3 4 4
17 17 19 22 21 23 24 25 24 25 25 25 25 24 24 25 16 4 1 6 5 4 2 2 1 2 5 4 3 3 2 2 2 3 1 2 2 1 2 3 3 6 5 5 6 7 5 7 3 3 2 3 3 4
17 18 17 19 22 23 24 26 26 26 27 28 27 26 24 18 11 2 7 8 9 4 3 3 2 1 3 2 2 2 2 2 2 2 2 2 3 2 3 2 7 7 7 5 4 3 3 6 5 3 2 2 3 4
15 17 19 24 27 26 24 24 25 25 27 27 27 23 12 3 3 8 19 9 5 3 1 2 3 3 4 2 2 2 1 3 1 1 2 3 1 4 3 1 8 9 5 6 6 4 4 3 3 3 4 4 4 5
17 17 21 24 29 23 20 22 27 28 29 24 14 7 3 8 19 18 5 2 2 3 3 3 2 0 2 1 1 2 1 1 1 3 4 2 3 1 1 4 7 6 5 6 5 3 4 4 4 4 4 4 5 6
16 17 20 23 24 17 18 23 26 30 28 22 12 5 12 24 8 3 3 5 6 5 5 3 2 2 1 2 2 1 2 1 1 4 3 2 3 2 6 7 6 4 4 4 4 4 5 5 4 4 5 6 7 8
17 17 20 21 21 20 21 24 25 26 22 20 17 17 9 5 3 5 1 4 4 0 4 2 3 3 2 1 3 1 2 2 4 1 2 3 3 3 7 7 6 6 6 4 4 4 4 5 6 6 7 9 10 11
21 21 20 20 18 20 22 24 25 20 22 10 3 3 5 5 6 5 4 4 3 8 4 3 2 2 2 2 5 3 2 4 1 1 3 3 3 6 8 8 8 7 5 5 5 6 7 9 9 10 11 13 14 15
20 19 18 17 20 24 27 26 21 18 11 4 5 6 3 4 1 3 3 2 3 5 5 6 3 4 2 3 1 2 3 2 2 1 4 2 3 4 5 6 7 6 7 8 9 10 10 11 11 12 14 16 17 18
21 21 16 23 26 27 26 22 21 14 2 2 2 2 1 1 2 3 4 5 4 6 5 3 2 3 3 2 1 2 3 3 4 3 2 2 1 4 6 8 9 10 11 11 11 12 13 13 14 14 16 17 18 18
23 23 21 27 30 30 27 20 11 4 1 1 1 1 1 1 3 3 5 4 5 5 4 1 2 3 3 2 2 5 4 4 1 1 2 3 5 6 7 9 10 11 12 13 14 15 15 14 15 16 16 16 16 17
22 21 25 29 30 29 22 9 3 3 2 1 0 2 2 4 2 2 4 3 5 4 1 2 1 7 1 2 2 2 1 1 4 3 2 4 6 8 10 12 12 13 13 14 15 16 15 14 15 16 15 12 14 15
21 20 24 28 27 25 8 6 3 2 2 2 3 3 2 3 5 4 3 4 4 2 1 2 2 1 4 3 1 1 2 3 2 1 3 6 9 11 12 12 12 13 15 16 16 15 15 14 15 14 13 11 12 12
20 23 24 23 24 14 4 3 3 2 1 3 3 4 5 5 6 7 7 7 6 5 4 2 1 1 1 2 2 2 5 4 2 1 3 7 10 11 11 11 11 11 12 13 14 15 15 16 16 14 13 13 14 15
19 23 20 23 16 4 0 0 2 1 2 2 5 5 6 6 8 9 10 7 5 3 2 1 1 2 4 8 7 5 3 4 4 5 5 8 12 13 10 10 10 11 12 12 13 14 16 18 18 18 17 17 19 19
19 18 20 15 6 1 1 1 1 2 3 3 5 7 4 7 6 3 4 6 1 2 1 1 4 5 7 6 4 5 7 7 8 10 11 12 13 13 11 10 11 12 13 13 14 14 15 20 20 20 21 22 23 24
17 18 11 5 1 1 1 1 3 5 3 4 5 4 5 3 3 3 9 1 2 1 2 3 6 7 7 8 8 11 13 13 13 13 12 13 16 15 14 11 12 11 11 13 15 16 17 17 18 19 21 22 22 23
15 9 3 2 1 1 1 5 2 2 0 2 4 2 2 2 3 6 1 2 3 6 3 4 6 8 8 9 10 11 13 14 14 12 11 13 15 16 16 14 14 17 17 18 20 22 24 22 22 23 23 22 22 23
5 2 2 2 4 1 3 1 2 3 3 4 3 5 4 5 6 1 2 3 7 5 2 6 9 7 7 7 8 10 11 11 12 10 10 11 14 16 17 18 19 21 23 24 25 27 26 25 23 24 25 26 24 25
2 3 3 3 4 3 5 6 5 3 2 2 2 4 3 5 2 2 2 4 10 4 2 7 6 4 4 6 9 10 12 13 12 12 11 18 22 23 23 22 24 25 26 27 24 21 21 21 21 20 20 22 24 25
3 2 1 2 2 1 2 2 1 2 1 3 4 3 3 3 3 5 4 8 14 7 3 4 2 0 3 5 9 12 14 16 18 20 23 21 22 25 28 29 30 29 24 22 21 22 21 20 20 20 21 20 19 21
1 3 2 1 4 5 4 4 3 2 1 4 2 2 3 1 4 4 4 8 11 8 6 7 6 3 5 5 5 7 10 14 19 23 29 31 27 21 21 24 27 25 21 20 21 21 23 23 23 22 23 22 20 18
1 5 3 4 5 5 3 1 2 5 3 4 3 0 4 6 5 3 5 7 8 13 12 10 11 10 9 6 5 9 15 20 26 30 35 35 33 31 25 22 23 22 22 22 23 23 25 26 26 25 23 22 23 23
2 3 4 4 3 5 6 7 5 4 4 7 5 3 7 13 20 20 24 29 23 21 19 14 16 16 15 14 14 16 20 25 32 39 40 42 43 39 33 30 26 23 21 21 21 22 23 23 25 28 28 27 27 28
3 5 3 3 3 4 4 7 6 9 11 13 12 17 25 33 31 25 20 17 15 12 9 14 16 19 19 20 22 22 21 22 25 34 38 40 40 38 35 30 29 31 27 24 20 22 19 21 22 23 23 24 24 24
5 4 4 5 6 7 11 13 16 21 21 19 18 19 23 20 21 10 10 10 10 10 12 14 15 17 19 20 23 23 30 31 32 40 39 39 38 37 35 35 33 25 27 29 24 23 28 24 20 21 23 23 22 22
4 4 3 2 4 9 13 6 7 7 8 6 5 6 6 6 6 4 5 6 7 8 10 13 15 16 17 15 18 34 32 37 40 41 39 38 38 39 38 33 33 23 22 30 26 22 23 24 21 20 24 25 23 23
5 6 6 5 4 3 4 9 4 5 5 4 3 3 4 4 6 2 4 5 5 7 8 7 5 7 16 32 41 46 40 34 35 37 35 31 28 28 29 29 30 22 28 30 25 19 21 24 22 22 24 26 24 23
Wind_Direction
54 43 35 30 25 22 18 17 18 18 17 13 13 15 16 16 15 14 14 15 13 84 162 188 180 162 154 179 148 153 92 238 59 123 147 204 147 223 106 162 174 168 161 196 151 159 279 143 116 169 147 125 144 140
47 42 36 29 24 20 16 12 9 9 9 10 7 4 3 3 4 2 355 349 352 240 148 177 182 191 198 188 174 173 194 171 169 93 95 104 176 83 122 242 38 288 186 179 180 210 74 155 124 122 172 155 146 145
32 26 21 16 11 9 8 5 3 1 359 358 358 358 357 356 354 354 348 345 336 211 126 164 176 185 199 209 204 190 215 190 187 160 151 153 180 127 174 239 190 251 161 169 87 156 129 125 119 128 130 138 150 256
20 14 8 4 4 4 4 3 1 357 354 352 349 349 348 347 346 344 342 343 333 256 130 182 189 192 228 232 229 226 242 194 165 161 114 134 151 185 215 179 165 195 126 162 287 41 124 168 171 155 150 159 215 297
7 1 358 1 5 6 5 2 0 358 354 352 348 344 342 339 337 333 325 341 8 276 169 143 177 259 240 240 235 223 205 192 170 142 93 215 156 114 24 76 252 191 188 164 228 174 137 154 176 179 203 250 287 298
356 357 359 357 0 2 1 1 359 357 353 348 345 341 334 331 329 329 284 358 13 23 344 95 205 313 31 130 129 159 176 179 171 159 167 165 136 134 113 219 275 166 153 152 154 146 122 143 163 187 252 295 305 306
356 359 1 3 0 352 352 354 353 351 348 343 339 335 329 321 326 317 340 316 345 344 267 70 47 110 132 93 78 103 103 153 132 133 127 107 119 142 135 220 132 148 142 123 144 157 137 177 189 195 218 231 266 292
356 360 359 353 350 346 345 345 346 346 346 341 336 330 321 313 319 271 332 321 322 294 244 106 282 105 156 87 88 88 118 136 77 102 118 133 127 70 251 229 156 152 154 152 144 189 194 165 179 198 218 244 280 291
348 356 346 344 348 343 339 338 344 347 345 340 333 326 315 351 34 329 331 327 307 250 156 90 128 240 143 99 100 96 39 40 27 92 246 142 297 228 254 331 168 166 162 158 145 138 148 173 185 203 222 237 259 280
354 347 336 338 339 346 347 343 340 343 345 342 337 325 350 358 330 332 342 38 53 40 43 84 90 84 138 158 59 93 65 138 27 261 138 129 252 217 94 129 148 154 157 165 160 179 198 211 220 236 246 261 279 297
340 332 328 333 343 350 337 335 337 339 347 353 340 314 314 321 329 12 34 39 352 29 21 39 46 142 130 94 185 35 194 123 2 266 137 289 284 242 173 155 152 150 158 179 206 225 224 231 237 254 278 290 295 296
327 325 322 324 333 334 325 326 334 337 333 318 300 298 318 342 0 68 327 336 44 315 352 8 45 64 99 55 96 22 123 41 251 169 77 279 262 205 181 175 180 190 198 208 239 264 277 291 296 296 297 297 298 298
330 326 321 321 323 317 326 328 331 327 331 324 345 315 342 353 34 68 344 333 10 349 359 354 10 35 85 59 69 70 177 229 335 63 229 227 298 165 165 179 201 217 232 251 260 272 286 289 289 291 293 294 295 296
338 337 337 330 335 334 330 327 330 327 339 323 354 354 71 350 304 184 203 229 321 330 1 6 19 32 23 48 130 80 246 61 16 335 238 258 165 170 209 225 240 255 261 264 270 279 289 294 293 291 293 295 295 295
339 341 342 343 337 332 329 326 325 328 282 300 350 327 41 351 304 314 311 320 350 332 341 333 15 356 346 91 73 57 359 259 213 224 220 163 266 290 273 266 270 269 269 271 274 282 290 290 287 288 292 295 295 293
328 334 338 337 339 337 330 327 327 325 217 338 188 40 277 338 328 20 13 4 349 336 323 340 85 38 284 152 88 222 147 228 219 151 70 352 322 321 306 290 284 277 272 275 276 283 287 286 287 293 298 298 295 294
321 320 329 336 337 337 330 340 338 52 48 317 58 291 278 293 290 323 333 341 339 329 295 100 71 227 105 27 268 202 198 89 94 72 326 301 302 298 292 289 285 280 280 282 282 283 285 282 287 297 302 304 299 298
323 321 324 334 336 339 1 16 49 27 34 349 2 7 349 309 305 303 307 312 332 288 236 235 158 165 214 196 300 107 134 126 137 260 307 308 303 299 294 291 284 281 283 285 286 283 280 281 287 296 298 304 308 313
322 328 328 331 337 338 3 10 37 2 345 336 311 295 300 292 295 293 299 303 292 261 270 243 337 242 358 43 349 239 198 196 229 284 332 337 328 316 302 297 292 290 291 291 284 281 278 275 283 286 288 291 298 308
315 322 322 327 333 313 336 69 355 304 303 290 294 296 301 283 280 285 296 303 298 224 230 39 222 352 323 309 302 276 240 239 276 297 321 339 330 320 313 302 299 295 298 301 297 288 282 277 276 281 282 284 288 296
316 322 322 329 333 218 45 294 300 329 295 290 290 312 290 275 272 283 323 345 134 118 121 55 354 344 340 335 302 241 248 268 290 298 304 315 313 321 316 307 300 299 305 307 304 302 288 288 295 287 281 277 279 285
317 321 324 343 338 352 23 18 304 293 281 276 301 292 278 291 332 3 333 110 119 128 117 44 19 1 347 331 307 284 279 279 280 288 293 296 302 307 305 300 296 301 303 306 304 303 302 303 298 290 283 284 282 283
321 324 344 355 322 328 262 319 310 287 327 299 306 319 284 326 334 331 266 195 157 142 113 32 5 349 330 312 306 302 297 290 289 281 288 295 298 303 299 291 290 291 293 298 301 297 296 297 293 291 291 287 286 285
341 355 14 25 10 310 314 280 297 302 294 1 32 301 334 329 328 353 227 210 177 168 52 3 352 348 348 357 5 7 358 343 327 305 297 311 311 308 302 294 295 295 300 301 299 298 297 295 292 285 281 282 282 281
337 358 8 8 14 351 17 341 335 19 280 327 8 317 325 327 16 343 236 214 182 168 8 348 340 5 46 41 29 17 12 7 354 338 322 315 312 308 304 299 295 296 303 306 304 298 295 296 295 293 291 287 285 286
77 360 28 4 346 32 231 304 259 247 198 315 241 298 330 61 30 256 233 205 196 208 301 310 260 102 38 48 55 52 42 28 16 5 357 337 317 308 306 307 307 306 313 305 302 300 298 298 296 295 293 294 290 285
80 248 162 198 286 277 275 254 259 203 241 214 248 19 59 349 257 255 218 211 219 244 282 308 229 191 136 107 63 27 7 355 348 344 344 344 341 329 309 301 301 307 303 297 299 300 300 300 299 299 298 298 296 294
167 193 185 281 256 234 226 233 193 219 231 185 158 266 196 204 238 261 271 290 277 270 278 280 226 207 214 234 286 321 332 333 331 328 327 327 332 336 335 324 321 313 306 304 302 303 300 298 298 299 298 298 301 300
236 263 291 259 246 235 230 212 233 222 199 196 185 238 248 259 278 287 290 295 287 277 281 241 225 230 242 259 285 307 320 329 330 330 327 323 326 325 328 324 320 317 310 302 295 291 289 290 295 300 300 298 297 299
243 276 259 234 192 241 240 232 249 266 266 259 259 270 278 282 293 298 288 274 269 272 259 229 228 241 259 270 284 296 311 315 316 326 319 314 314 317 316 317 317 315 310 304 299 299 294 290 290 288 283 283 284 288
270 254 241 240 251 266 272 279 284 286 282 276 273 262 272 294 306 305 262 257 256 241 230 233 244 256 269 284 300 309 306 306 306 317 317 315 312 314 315 315 316 310 309 305 298 295 300 298 294 292 292 293 294 293
259 232 240 277 270 289 301 291 289 273 276 274 269 259 286 279 278 281 285 256 239 236 246 257 264 275 291 307 312 321 313 310 310 312 314 315 313 313 312 308 309 311 302 300 300 297 297 299 294 292 294 293 295 296
270 271 258 272 286 285 308 323 281 296 267 277 284 283 263 267 267 294 345 320 285 276 280 286 312 339 323 320 322 324 323 317 313 313 312 309 308 307 305 302 301 303 298 302 303 300 296 297 295 294 296 298 298 297